Regional Weather Roundup
Issued by NWS

Home | Current Version | Previous Version | Text Only | Print | Product List | Glossary Off
Versions: 1 2 3 4 5 6 7 8 9 10 11 12 13 14 15 16 17 18 19 20 21 22 23 24 25 26 27 28 29 30 31 32 33 34 35 36 37 38 39 40 41 42 43 44 45 46 47 48 49 50

000
ASUS43 KMKX 021621
RWRWI

WISCONSIN REGIONAL WEATHER ROUNDUP
NATIONAL WEATHER SERVICE MILWAUKEE/SULLIVAN WI
1100 AM CDT THU OCT 02 2014

NOTE: "FAIR" INDICATES FEW OR NO CLOUDS BELOW 12,000 FEET WITH NO
SIGNIFICANT WEATHER AND/OR OBSTRUCTIONS TO VISIBILITY.

WIZ001-002-006>008-014>016-023>028-021700-
NORTHWEST WISCONSIN

CITY           SKY/WX    TMP DP  RH WIND       PRES   REMARKS
SUPERIOR ARPT  CLOUDY    55  53  91 CALM      29.83F
ASHLAND        CLOUDY    58  54  86 CALM      29.84F
HAYWARD        CLOUDY    57  55  93 SE3       29.84F
SIREN          CLOUDY    56  53  89 CALM      29.85S
CUMBERLAND     CLOUDY    55  54  94 CALM      29.84F FOG
RICE LAKE      CLOUDY    58  55  92 CALM      29.86S FOG
CHETEK         CLOUDY    58  56  94 CALM      29.84F
LADYSMITH      CLOUDY    59  56  91 CALM      29.86S FOG
EAU CLAIRE     CLOUDY    60  57  89 S3        29.82F
MENOMONIE      CLOUDY    61  58  90 CALM      29.83F FOG
NEW RICHMOND   CLOUDY    58  57  96 CALM      29.84S FOG
OSCEOLA        CLOUDY    58  57  97 NW3       29.87S
$$

WIZ003>005-009-010-017-018-021700-
NORTH CENTRAL WISCONSIN

CITY           SKY/WX    TMP DP  RH WIND       PRES   REMARKS
MANITOWISH WTR CLOUDY    55  55 100 CALM      29.85S FOG
ARBOR VITAE    CLOUDY    57  55  94 CALM      29.85S FOG
WOODRUFF       CLOUDY    57  55  94 CALM      29.85S FOG
RHINELANDER    CLOUDY    55  53  93 E6        29.86F
EAGLE RIVER    CLOUDY    57  55  93 CALM      29.85S FOG
LAND O LAKES   CLOUDY    56  56  99 CALM      29.86F FOG
PHILLIPS       CLOUDY    58  56  90 CALM      29.83F
TOMAHAWK       CLOUDY    58  55  88 CALM      29.85F FOG
MEDFORD        MOSUNNY   60  56  86 SE6       29.84S FOG
MERRILL        CLOUDY    60  56  86 CALM      29.84F FOG
$$

WIZ029-030-035-036-043>047-021700-
CENTRAL WISCONSIN

CITY           SKY/WX    TMP DP  RH WIND       PRES   REMARKS
WAUSAU         PTSUNNY   62  55  77 CALM      29.82F
MOSINEE        CLOUDY    61  57  88 CALM      29.85F
MARSHFIELD     PTSUNNY   63  57  81 S5        29.83F
STEVENS POINT  CLOUDY    59  56  89 SE3       29.84F FOG
WAUPACA        CLOUDY    64  58  80 CALM      29.83F
WAUTOMA        NOT AVBL
WISC RAPIDS    CLOUDY    63  58  83 CALM      29.84F
CAMP DOUGLAS   CLOUDY    66  66 100 SE1       29.82F
$$

WIZ011>013-019>022-031-037>040-048>050-021700-
NORTHEAST WISCONSIN

CITY           SKY/WX    TMP DP  RH WIND       PRES   REMARKS
ANTIGO         CLOUDY    58  55  91 CALM      29.85F FOG
SHAWANO        CLOUDY    63  58  84 NE3       29.83F
OCONTO         CLOUDY    62  60  95 SE3       29.83F
STURGEON BAY   NOT AVBL
GREEN BAY      PTSUNNY   63  59  87 SE3       29.84F
MANITOWOC      NOT AVBL
APPLETON       PTSUNNY   66  57  72 CALM      29.84F HAZE
CLINTONVILLE   CLOUDY    61  57  88 CALM      29.82F
OSHKOSH        CLOUDY    63  59  87 S5        29.83F FOG
$$

WIZ032>034-041-042-053>061-021700-
SOUTHWEST WISCONSIN

CITY           SKY/WX    TMP DP  RH WIND       PRES   REMARKS
LA CROSSE      CLOUDY    64  59  83 NW5       29.81F
SPARTA         CLOUDY    64  61  88 CALM      29.83F
VIROQUA        CLOUDY    65  63  91 SE5       29.82F
BOSCOBEL       CLOUDY    63  61  93 CALM      29.82F FOG
PRAIRIE DU CHI CLOUDY    63  61  94 CALM      29.80F FOG
PLATTEVILLE    CLOUDY    71  64  79 CALM      29.82S
$$

WIZ056-057-062-063-064-067-068-021700-
SOUTH CENTRAL WISCONSIN

CITY           SKY/WX    TMP DP  RH WIND       PRES   REMARKS
REEDSBURG      CLOUDY    63  60  88 CALM      29.83S
BARABOO/DELLS  CLOUDY    62  59  90 CALM      29.82S FOG
LONE ROCK      CLOUDY    69  58  67 CALM      29.82F
MINERAL POINT  CLOUDY    68  61  77 CALM      29.82S
MADISON        CLOUDY    64  59  83 CALM      29.83F
MIDDLETON      CLOUDY    64  60  84 CALM      29.83F
WATERTOWN      CLOUDY    64  63  99 CALM      29.83F
MONROE         CLOUDY    68  63  83 CALM      29.82S
JANESVILLE     CLOUDY    70  63  78 S7        29.82F
$$

WIZ051-052-058>065-066-070>072-021700-
SOUTHEAST WISCONSIN

CITY           SKY/WX    TMP DP  RH WIND       PRES   REMARKS
MILWAUKEE      CLOUDY    69  61  75 SW10      29.84S
WAUKESHA       CLOUDY    64  61  88 S7        29.85F
MILWAUKEE/TIMM CLOUDY    66  61  82 S9        29.84F
RACINE         CLOUDY    67  60  78 S8        29.86F
BURLINGTON     CLOUDY    68  62  82 S6        29.84S
KENOSHA        CLOUDY    72  64  76 S8        29.85F
FOND DU LAC    CLOUDY    63  58  83 CALM      29.83F
SHEBOYGAN      CLOUDY    61  59  93 S3        29.84F FOG
WEST BEND      DRIZZLE   61  57  88 SE3       29.84S
JUNEAU         CLOUDY    63  59  88 S3        29.84F
$$

LSZ147-162-021700-
LAKE SUPERIOR

STATION/POSITION TIME  TEMP    WIND        PRES    WAVE
                       AIR SEA DIR/SP/G            HT/PER
                 (UTC) (F)     (DEG/KT/KT) (MB)    (FT/S)
W MID LAKE BUOY  1550   52 50  210/  4/  4 1010.8R   1
DEVILS ISLAND    1600   54     280/  1/  2 1010.5F
SAXON HARBOR     1500   56        CALM     1010.8S
$$

LMZ867-665-643>646-021700-
LAKE MICHIGAN

STATION/POSITION TIME  TEMP    WIND        PRES    WAVE
                       AIR SEA DIR/SP/G            HT/PER
                 (UTC) (F)     (DEG/KT/KT) (MB)    (FT/S)
CHAMBERS ISLAND  1500   59     120/  4/  7 1011.2F
S GREEN BAY BUOY 1600   60                 1011.5F
N MID LAKE BUOY  1550   57 58  150/ 10/ 10 1012.0F   2/ 4
NORTHPORT PIER   1600   57     150/  6/ 12 1011.2F
KEWAUNEE LAKESHO 1600   56     150/  3/  4 1010.1F
SHEBOYGAN LAKESH 1600   59 56  150/  8/  8 1010.7F
PORT WASHINGTON  1500   61      CALM  /  1 1011.5S
ATWATER BUOY     1600   60     160/ 12/ 14 1011.6F
MILWAUKEE LAKESH 1600   61     150/ 11/ 12   N/A
S MID LAKE BUOY  1550   63 62  170/ 12/ 14 1011.4F   3/ 5
KENOSHA   LAKESH 1600   62     170/ 14/ 16 1010.5F
$$

TC  - TEMPERATURE IN CELSIUS
VSB - VISIBILITY IN STATUTE MILES
WCI - WIND CHILL INDEX
HX  - HEAT INDEX




USA.gov is the U.S. government's official web portal to all federal, state and local government web resources and services.